Year,Month,Day,Hour,Minute,Value (Times are PST for windgust in km/hr)
2010,04,02,00,00,1.60
2010,04,02,00,01,0.00
2010,04,02,00,02,0.00
2010,04,02,00,03,0.00
2010,04,02,00,04,3.20
2010,04,02,00,05,3.20
2010,04,02,00,06,3.20
2010,04,02,00,07,4.80
2010,04,02,00,08,3.20
2010,04,02,00,09,4.80
2010,04,02,00,10,1.60
2010,04,02,00,11,3.20
2010,04,02,00,12,4.80
2010,04,02,00,13,3.20
2010,04,02,00,14,9.60
2010,04,02,00,15,3.20
2010,04,02,00,16,9.60
2010,04,02,00,17,3.20
2010,04,02,00,18,14.50
2010,04,02,00,19,6.40
2010,04,02,00,20,3.20
2010,04,02,00,21,4.80
2010,04,02,00,22,1.60
2010,04,02,00,23,4.80
2010,04,02,00,24,4.80
2010,04,02,00,25,11.30
2010,04,02,00,26,6.40
2010,04,02,00,27,3.20
2010,04,02,00,28,4.80
2010,04,02,00,29,8.10
2010,04,02,00,30,8.10
2010,04,02,00,31,8.10
2010,04,02,00,32,8.10
2010,04,02,00,33,9.60
2010,04,02,00,34,4.80
2010,04,02,00,35,4.80
2010,04,02,00,36,3.20
2010,04,02,00,37,3.20
2010,04,02,00,38,1.60
2010,04,02,00,39,0.00
2010,04,02,00,40,3.20
2010,04,02,00,41,11.30
2010,04,02,00,42,4.80
2010,04,02,00,43,4.80
2010,04,02,00,44,3.20
2010,04,02,00,45,6.40
2010,04,02,00,46,3.20
2010,04,02,00,47,6.40
2010,04,02,00,48,9.60
2010,04,02,00,49,11.30
2010,04,02,00,50,11.30
2010,04,02,00,51,8.10
2010,04,02,00,52,8.10
2010,04,02,00,53,9.60
2010,04,02,00,54,4.80
2010,04,02,00,55,3.20
2010,04,02,00,56,8.10
2010,04,02,00,57,6.40
2010,04,02,00,58,6.40
2010,04,02,00,59,9.60
2010,04,02,01,00,8.10
2010,04,02,01,01,16.10
2010,04,02,01,02,8.10
2010,04,02,01,03,6.40
2010,04,02,01,04,6.40
2010,04,02,01,05,9.60
2010,04,02,01,06,1.60
2010,04,02,01,07,4.80
2010,04,02,01,08,1.60
2010,04,02,01,09,6.40
2010,04,02,01,10,11.30
2010,04,02,01,11,12.90
2010,04,02,01,12,20.90
2010,04,02,01,13,9.60
2010,04,02,01,14,20.90
2010,04,02,01,15,17.70
2010,04,02,01,16,20.90
2010,04,02,01,17,8.10
2010,04,02,01,18,17.70
2010,04,02,01,19,16.10
2010,04,02,01,20,8.10
2010,04,02,01,21,19.30
2010,04,02,01,22,22.50
2010,04,02,01,23,19.30
2010,04,02,01,24,17.70
2010,04,02,01,25,24.20
2010,04,02,01,26,22.50
2010,04,02,01,27,16.10
2010,04,02,01,28,14.50
2010,04,02,01,29,11.30
2010,04,02,01,30,22.50
2010,04,02,01,31,17.70
2010,04,02,01,32,16.10
2010,04,02,01,33,20.90
2010,04,02,01,34,17.70
2010,04,02,01,35,14.50
2010,04,02,01,36,12.90
2010,04,02,01,37,17.70
2010,04,02,01,38,16.10
2010,04,02,01,39,16.10
2010,04,02,01,40,11.30
2010,04,02,01,41,14.50
2010,04,02,01,42,25.70
2010,04,02,01,43,16.10
2010,04,02,01,44,17.70
2010,04,02,01,45,19.30
2010,04,02,01,46,19.30
2010,04,02,01,47,22.50
2010,04,02,01,48,9.60
2010,04,02,01,49,16.10
2010,04,02,01,50,19.30
2010,04,02,01,51,17.70
2010,04,02,01,52,25.70
2010,04,02,01,53,22.50
2010,04,02,01,54,11.30
2010,04,02,01,55,14.50
2010,04,02,01,56,9.60
2010,04,02,01,57,11.30
2010,04,02,01,58,16.10
2010,04,02,01,59,24.20
2010,04,02,02,00,19.30
2010,04,02,02,01,25.70
2010,04,02,02,02,20.90
2010,04,02,02,03,19.30
2010,04,02,02,04,19.30
2010,04,02,02,05,20.90
2010,04,02,02,06,20.90
2010,04,02,02,07,17.70
2010,04,02,02,08,22.50
2010,04,02,02,09,11.30
2010,04,02,02,10,11.30
2010,04,02,02,11,11.30
2010,04,02,02,12,19.30
2010,04,02,02,13,25.70
2010,04,02,02,14,17.70
2010,04,02,02,15,22.50
2010,04,02,02,16,17.70
2010,04,02,02,17,22.50
2010,04,02,02,18,11.30
2010,04,02,02,19,14.50
2010,04,02,02,20,24.20
2010,04,02,02,21,16.10
2010,04,02,02,22,17.70
2010,04,02,02,23,16.10
2010,04,02,02,24,27.40
2010,04,02,02,25,17.70
2010,04,02,02,26,9.60
2010,04,02,02,27,11.30
2010,04,02,02,28,19.30
2010,04,02,02,29,19.30
2010,04,02,02,30,19.30
2010,04,02,02,31,20.90
2010,04,02,02,32,16.10
2010,04,02,02,33,6.40
2010,04,02,02,34,16.10
2010,04,02,02,35,24.20
2010,04,02,02,36,14.50
2010,04,02,02,37,14.50
2010,04,02,02,38,16.10
2010,04,02,02,39,12.90
2010,04,02,02,40,14.50
2010,04,02,02,41,8.10
2010,04,02,02,42,22.50
2010,04,02,02,43,19.30
2010,04,02,02,44,17.70
2010,04,02,02,45,20.90
2010,04,02,02,46,19.30
2010,04,02,02,47,6.40
2010,04,02,02,48,6.40
2010,04,02,02,49,16.10
2010,04,02,02,50,9.60
2010,04,02,02,51,12.90
2010,04,02,02,52,8.10
2010,04,02,02,53,3.20
2010,04,02,02,54,11.30
2010,04,02,02,55,14.50
2010,04,02,02,56,16.10
2010,04,02,02,57,25.70
2010,04,02,02,58,22.50
2010,04,02,02,59,11.30
2010,04,02,03,00,11.30
2010,04,02,03,01,8.10
2010,04,02,03,02,16.10
2010,04,02,03,03,16.10
2010,04,02,03,04,9.60
2010,04,02,03,05,6.40
2010,04,02,03,06,1.60
2010,04,02,03,07,6.40
2010,04,02,03,08,8.10
2010,04,02,03,09,16.10
2010,04,02,03,10,6.40
2010,04,02,03,11,4.80
2010,04,02,03,12,8.10
2010,04,02,03,13,9.60
2010,04,02,03,14,3.20
2010,04,02,03,15,12.90
2010,04,02,03,16,6.40
2010,04,02,03,17,6.40
2010,04,02,03,18,8.10
2010,04,02,03,19,4.80
2010,04,02,03,20,3.20
2010,04,02,03,21,3.20
2010,04,02,03,22,0.00
2010,04,02,03,23,0.00
2010,04,02,03,24,0.00
2010,04,02,03,25,9.60
2010,04,02,03,26,4.80
2010,04,02,03,27,3.20
2010,04,02,03,28,1.60
2010,04,02,03,29,4.80
2010,04,02,03,30,8.10
2010,04,02,03,31,8.10
2010,04,02,03,32,4.80
2010,04,02,03,33,1.60
2010,04,02,03,34,1.60
2010,04,02,03,35,4.80
2010,04,02,03,36,1.60
2010,04,02,03,37,8.10
2010,04,02,03,38,4.80
2010,04,02,03,39,3.20
2010,04,02,03,40,3.20
2010,04,02,03,41,6.40
2010,04,02,03,42,3.20
2010,04,02,03,43,0.00
2010,04,02,03,44,0.00
2010,04,02,03,45,3.20
2010,04,02,03,46,3.20
2010,04,02,03,47,3.20
2010,04,02,03,48,4.80
2010,04,02,03,49,3.20
2010,04,02,03,50,1.60
2010,04,02,03,51,3.20
2010,04,02,03,52,3.20
2010,04,02,03,53,1.60
2010,04,02,03,54,1.60
2010,04,02,03,55,0.00
2010,04,02,03,56,0.00
2010,04,02,03,57,1.60
2010,04,02,03,58,1.60
2010,04,02,03,59,0.00
2010,04,02,04,00,0.00
2010,04,02,04,01,1.60
2010,04,02,04,02,3.20
2010,04,02,04,03,3.20
2010,04,02,04,04,1.60
2010,04,02,04,05,4.80
2010,04,02,04,06,3.20
2010,04,02,04,07,8.10
2010,04,02,04,08,4.80
2010,04,02,04,09,6.40
2010,04,02,04,10,6.40
2010,04,02,04,11,4.80
2010,04,02,04,12,6.40
2010,04,02,04,13,4.80
2010,04,02,04,14,4.80
2010,04,02,04,15,6.40
2010,04,02,04,16,8.10
2010,04,02,04,17,4.80
2010,04,02,04,18,4.80
2010,04,02,04,19,8.10
2010,04,02,04,20,9.60
2010,04,02,04,21,6.40
2010,04,02,04,22,4.80
2010,04,02,04,23,8.10
2010,04,02,04,24,6.40
2010,04,02,04,25,8.10
2010,04,02,04,26,8.10
2010,04,02,04,27,9.60
2010,04,02,04,28,6.40
2010,04,02,04,29,4.80
2010,04,02,04,30,3.20
2010,04,02,04,31,4.80
2010,04,02,04,32,8.10
2010,04,02,04,33,11.30
2010,04,02,04,34,6.40
2010,04,02,04,35,4.80
2010,04,02,04,36,3.20
2010,04,02,04,37,3.20
2010,04,02,04,38,3.20
2010,04,02,04,39,8.10
2010,04,02,04,40,3.20
2010,04,02,04,41,6.40
2010,04,02,04,42,4.80
2010,04,02,04,43,4.80
2010,04,02,04,44,3.20
2010,04,02,04,45,3.20
2010,04,02,04,46,0.00
2010,04,02,04,47,4.80
2010,04,02,04,48,6.40
2010,04,02,04,49,16.10
2010,04,02,04,50,8.10
2010,04,02,04,51,17.70
2010,04,02,04,52,8.10
2010,04,02,04,53,8.10
2010,04,02,04,54,19.30
2010,04,02,04,55,19.30
2010,04,02,04,56,27.40
2010,04,02,04,57,14.50
2010,04,02,04,58,22.50
2010,04,02,04,59,14.50
2010,04,02,05,00,16.10
2010,04,02,05,01,20.90
2010,04,02,05,02,22.50
2010,04,02,05,03,19.30
2010,04,02,05,04,25.70
2010,04,02,05,05,19.30
2010,04,02,05,06,27.40
2010,04,02,05,07,25.70
2010,04,02,05,08,17.70
2010,04,02,05,09,22.50
2010,04,02,05,10,22.50
2010,04,02,05,11,29.00
2010,04,02,05,12,32.20
2010,04,02,05,13,27.40
2010,04,02,05,14,37.00
2010,04,02,05,15,30.60
2010,04,02,05,16,30.60
2010,04,02,05,17,20.90
2010,04,02,05,18,27.40
2010,04,02,05,19,19.30
2010,04,02,05,20,29.00
2010,04,02,05,21,37.00
2010,04,02,05,22,27.40
2010,04,02,05,23,24.20
2010,04,02,05,24,27.40
2010,04,02,05,25,29.00
2010,04,02,05,26,30.60
2010,04,02,05,27,32.20
2010,04,02,05,28,30.60
2010,04,02,05,29,33.80
2010,04,02,05,30,29.00
2010,04,02,05,31,27.40
2010,04,02,05,32,25.70
2010,04,02,05,33,32.20
2010,04,02,05,34,33.80
2010,04,02,05,35,30.60
2010,04,02,05,36,27.40
2010,04,02,05,37,25.70
2010,04,02,05,38,40.20
2010,04,02,05,39,27.40
2010,04,02,05,40,30.60
2010,04,02,05,41,22.50
2010,04,02,05,42,25.70
2010,04,02,05,43,27.40
2010,04,02,05,44,32.20
2010,04,02,05,45,25.70
2010,04,02,05,46,43.50
2010,04,02,05,47,27.40
2010,04,02,05,48,20.90
2010,04,02,05,49,16.10
2010,04,02,05,50,27.40
2010,04,02,05,51,29.00
2010,04,02,05,52,30.60
2010,04,02,05,53,27.40
2010,04,02,05,54,19.30
2010,04,02,05,55,29.00
2010,04,02,05,56,25.70
2010,04,02,05,57,24.20
2010,04,02,05,58,24.20
2010,04,02,05,59,27.40
2010,04,02,06,00,25.70
2010,04,02,06,01,25.70
2010,04,02,06,02,33.80
2010,04,02,06,03,19.30
2010,04,02,06,04,25.70
2010,04,02,06,05,17.70
2010,04,02,06,06,24.20
2010,04,02,06,07,38.60
2010,04,02,06,08,32.20
2010,04,02,06,09,24.20
2010,04,02,06,10,29.00
2010,04,02,06,11,35.40
2010,04,02,06,12,27.40
2010,04,02,06,13,35.40
2010,04,02,06,14,37.00
2010,04,02,06,15,24.20
2010,04,02,06,16,53.10
2010,04,02,06,17,37.00
2010,04,02,06,18,27.40
2010,04,02,06,19,46.70
2010,04,02,06,20,37.00
2010,04,02,06,21,38.60
2010,04,02,06,22,32.20
2010,04,02,06,23,40.20
2010,04,02,06,24,33.80
2010,04,02,06,25,37.00
2010,04,02,06,26,37.00
2010,04,02,06,27,32.20
2010,04,02,06,28,33.80
2010,04,02,06,29,45.10
2010,04,02,06,30,30.60
2010,04,02,06,31,43.50
2010,04,02,06,32,37.00
2010,04,02,06,33,29.00
2010,04,02,06,34,30.60
2010,04,02,06,35,54.70
2010,04,02,06,36,46.70
2010,04,02,06,37,43.50
2010,04,02,06,38,38.60
2010,04,02,06,39,49.90
2010,04,02,06,40,49.90
2010,04,02,06,41,49.90
2010,04,02,06,42,40.20
2010,04,02,06,43,38.60
2010,04,02,06,44,45.10
2010,04,02,06,45,43.50
2010,04,02,06,46,45.10
2010,04,02,06,47,51.50
2010,04,02,06,48,51.50
2010,04,02,06,49,51.50
2010,04,02,06,50,37.00
2010,04,02,06,51,37.00
2010,04,02,06,52,48.30
2010,04,02,06,53,48.30
2010,04,02,06,54,43.50
2010,04,02,06,55,29.00
2010,04,02,06,56,25.70
2010,04,02,06,57,33.80
2010,04,02,06,58,40.20
2010,04,02,06,59,37.00
2010,04,02,07,00,46.70
2010,04,02,07,01,53.10
2010,04,02,07,02,51.50
2010,04,02,07,03,54.70
2010,04,02,07,04,25.70
2010,04,02,07,05,53.10
2010,04,02,07,06,46.70
2010,04,02,07,07,45.10
2010,04,02,07,08,43.50
2010,04,02,07,09,32.20
2010,04,02,07,10,62.70
2010,04,02,07,11,46.70
2010,04,02,07,12,43.50
2010,04,02,07,13,40.20
2010,04,02,07,14,41.80
2010,04,02,07,15,46.70
2010,04,02,07,16,41.80
2010,04,02,07,17,32.20
2010,04,02,07,18,41.80
2010,04,02,07,19,40.20
2010,04,02,07,20,32.20
2010,04,02,07,21,33.80
2010,04,02,07,22,35.40
2010,04,02,07,23,27.40
2010,04,02,07,24,45.10
2010,04,02,07,25,54.70
2010,04,02,07,26,33.80
2010,04,02,07,27,49.90
2010,04,02,07,28,37.00
2010,04,02,07,29,37.00
2010,04,02,07,30,30.60
2010,04,02,07,31,38.60
2010,04,02,07,32,45.10
2010,04,02,07,33,30.60
2010,04,02,07,34,38.60
2010,04,02,07,35,53.10
2010,04,02,07,36,51.50
2010,04,02,07,37,43.50
2010,04,02,07,38,45.10
2010,04,02,07,39,53.10
2010,04,02,07,40,33.80
2010,04,02,07,41,51.50
2010,04,02,07,42,53.10
2010,04,02,07,43,35.40
2010,04,02,07,44,27.40
2010,04,02,07,45,33.80
2010,04,02,07,46,35.40
2010,04,02,07,47,53.10
2010,04,02,07,48,43.50
2010,04,02,07,49,57.90
2010,04,02,07,50,53.10
2010,04,02,07,51,30.60
2010,04,02,07,52,29.00
2010,04,02,07,53,43.50
2010,04,02,07,54,27.40
2010,04,02,07,55,25.70
2010,04,02,07,56,37.00
2010,04,02,07,57,35.40
2010,04,02,07,58,40.20
2010,04,02,07,59,40.20
2010,04,02,08,00,30.60
2010,04,02,08,01,43.50
2010,04,02,08,02,30.60
2010,04,02,08,03,29.00
2010,04,02,08,04,29.00
2010,04,02,08,05,24.20
2010,04,02,08,06,45.10
2010,04,02,08,07,45.10
2010,04,02,08,08,53.10
2010,04,02,08,09,30.60
2010,04,02,08,10,24.20
2010,04,02,08,11,33.80
2010,04,02,08,12,48.30
2010,04,02,08,13,37.00
2010,04,02,08,14,53.10
2010,04,02,08,15,49.90
2010,04,02,08,16,37.00
2010,04,02,08,17,33.80
2010,04,02,08,18,40.20
2010,04,02,08,19,51.50
2010,04,02,08,20,38.60
2010,04,02,08,21,43.50
2010,04,02,08,22,53.10
2010,04,02,08,23,38.60
2010,04,02,08,24,38.60
2010,04,02,08,25,29.00
2010,04,02,08,26,29.00
2010,04,02,08,27,35.40
2010,04,02,08,28,40.20
2010,04,02,08,29,41.80
2010,04,02,08,30,46.70
2010,04,02,08,31,32.20
2010,04,02,08,32,41.80
2010,04,02,08,33,51.50
2010,04,02,08,34,35.40
2010,04,02,08,35,35.40
2010,04,02,08,36,30.60
2010,04,02,08,37,40.20
2010,04,02,08,38,45.10
2010,04,02,08,39,41.80
2010,04,02,08,40,38.60
2010,04,02,08,41,35.40
2010,04,02,08,42,38.60
2010,04,02,08,43,25.70
2010,04,02,08,44,32.20
2010,04,02,08,45,32.20
2010,04,02,08,46,24.20
2010,04,02,08,47,38.60
2010,04,02,08,48,29.00
2010,04,02,08,49,32.20
2010,04,02,08,50,37.00
2010,04,02,08,51,33.80
2010,04,02,08,52,29.00
2010,04,02,08,53,32.20
2010,04,02,08,54,30.60
2010,04,02,08,55,32.20
2010,04,02,08,56,35.40
2010,04,02,08,57,29.00
2010,04,02,08,58,38.60
2010,04,02,08,59,27.40
2010,04,02,09,00,27.40
2010,04,02,09,01,25.70
2010,04,02,09,02,33.80
2010,04,02,09,03,38.60
2010,04,02,09,04,20.90
2010,04,02,09,05,30.60
2010,04,02,09,06,32.20
2010,04,02,09,07,27.40
2010,04,02,09,08,38.60
2010,04,02,09,09,33.80
2010,04,02,09,10,32.20
2010,04,02,09,11,37.00
2010,04,02,09,12,32.20
2010,04,02,09,13,24.20
2010,04,02,09,14,41.80
2010,04,02,09,15,37.00
2010,04,02,09,16,29.00
2010,04,02,09,17,29.00
2010,04,02,09,18,17.70
2010,04,02,09,19,30.60
2010,04,02,09,20,37.00
2010,04,02,09,21,40.20
2010,04,02,09,22,43.50
2010,04,02,09,23,38.60
2010,04,02,09,24,32.20
2010,04,02,09,25,40.20
2010,04,02,09,26,37.00
2010,04,02,09,27,35.40
2010,04,02,09,28,40.20
2010,04,02,09,29,41.80
2010,04,02,09,30,41.80
2010,04,02,09,31,35.40
2010,04,02,09,32,45.10
2010,04,02,09,33,45.10
2010,04,02,09,34,30.60
2010,04,02,09,35,35.40
2010,04,02,09,36,41.80
2010,04,02,09,37,30.60
2010,04,02,09,38,30.60
2010,04,02,09,39,53.10
2010,04,02,09,40,30.60
2010,04,02,09,41,37.00
2010,04,02,09,42,37.00
2010,04,02,09,43,29.00
2010,04,02,09,44,38.60
2010,04,02,09,45,30.60
2010,04,02,09,46,32.20
2010,04,02,09,47,45.10
2010,04,02,09,48,38.60
2010,04,02,09,49,53.10
2010,04,02,09,50,40.20
2010,04,02,09,51,30.60
2010,04,02,09,52,53.10
2010,04,02,09,53,40.20
2010,04,02,09,54,53.10
2010,04,02,09,55,49.90
2010,04,02,09,56,46.70
2010,04,02,09,57,49.90
2010,04,02,09,58,30.60
2010,04,02,09,59,40.20
2010,04,02,10,00,32.20
2010,04,02,10,01,46.70
2010,04,02,10,02,46.70
2010,04,02,10,03,35.40
2010,04,02,10,04,30.60
2010,04,02,10,05,27.40
2010,04,02,10,06,35.40
2010,04,02,10,07,40.20
2010,04,02,10,08,45.10
2010,04,02,10,09,41.80
2010,04,02,10,10,37.00
2010,04,02,10,11,33.80
2010,04,02,10,12,32.20
2010,04,02,10,13,37.00
2010,04,02,10,14,41.80
2010,04,02,10,15,33.80
2010,04,02,10,16,27.40
2010,04,02,10,17,33.80
2010,04,02,10,18,37.00
2010,04,02,10,19,35.40
2010,04,02,10,20,43.50
2010,04,02,10,21,45.10
2010,04,02,10,22,49.90
2010,04,02,10,23,41.80
2010,04,02,10,24,25.70
2010,04,02,10,25,41.80
2010,04,02,10,26,45.10
2010,04,02,10,27,38.60
2010,04,02,10,28,32.20
2010,04,02,10,29,37.00
2010,04,02,10,30,30.60
2010,04,02,10,31,41.80
2010,04,02,10,32,56.30
2010,04,02,10,33,27.40
2010,04,02,10,34,37.00
2010,04,02,10,35,37.00
2010,04,02,10,36,40.20
2010,04,02,10,37,49.90
2010,04,02,10,38,51.50
2010,04,02,10,39,41.80
2010,04,02,10,40,53.10
2010,04,02,10,41,48.30
2010,04,02,10,42,51.50
2010,04,02,10,43,48.30
2010,04,02,10,44,45.10
2010,04,02,10,45,35.40
2010,04,02,10,46,54.70
2010,04,02,10,47,51.50
2010,04,02,10,48,48.30
2010,04,02,10,49,40.20
2010,04,02,10,50,49.90
2010,04,02,10,51,38.60
2010,04,02,10,52,41.80
2010,04,02,10,53,45.10
2010,04,02,10,54,59.50
2010,04,02,10,55,40.20
2010,04,02,10,56,24.20
2010,04,02,10,57,54.70
2010,04,02,10,58,53.10
2010,04,02,10,59,37.00
2010,04,02,11,00,25.70
2010,04,02,11,01,19.30
2010,04,02,11,02,40.20
2010,04,02,11,03,30.60
2010,04,02,11,04,29.00
2010,04,02,11,05,57.90
2010,04,02,11,06,41.80
2010,04,02,11,07,33.80
2010,04,02,11,08,40.20
2010,04,02,11,09,38.60
2010,04,02,11,10,43.50
2010,04,02,11,11,37.00
2010,04,02,11,12,45.10
2010,04,02,11,13,32.20
2010,04,02,11,14,43.50
2010,04,02,11,15,33.80
2010,04,02,11,16,54.70
2010,04,02,11,17,53.10
2010,04,02,11,18,25.70
2010,04,02,11,19,46.70
2010,04,02,11,20,29.00
2010,04,02,11,21,35.40
2010,04,02,11,22,53.10
2010,04,02,11,23,57.90
2010,04,02,11,24,33.80
2010,04,02,11,25,45.10
2010,04,02,11,26,35.40
2010,04,02,11,27,37.00
2010,04,02,11,28,40.20
2010,04,02,11,29,46.70
2010,04,02,11,30,41.80
2010,04,02,11,31,35.40
2010,04,02,11,32,38.60
2010,04,02,11,33,48.30
2010,04,02,11,34,37.00
2010,04,02,11,35,43.50
2010,04,02,11,36,48.30
2010,04,02,11,37,53.10
2010,04,02,11,38,37.00
2010,04,02,11,39,41.80
2010,04,02,11,40,22.50
2010,04,02,11,41,38.60
2010,04,02,11,42,38.60
2010,04,02,11,43,53.10
2010,04,02,11,44,29.00
2010,04,02,11,45,49.90
2010,04,02,11,46,32.20
2010,04,02,11,47,43.50
2010,04,02,11,48,51.50
2010,04,02,11,49,40.20
2010,04,02,11,50,29.00
2010,04,02,11,51,53.10
2010,04,02,11,52,51.50
2010,04,02,11,53,46.70
2010,04,02,11,54,56.30
2010,04,02,11,55,54.70
2010,04,02,11,56,49.90
2010,04,02,11,57,53.10
2010,04,02,11,58,32.20
2010,04,02,11,59,48.30
2010,04,02,12,00,37.00
2010,04,02,12,01,43.50
2010,04,02,12,02,51.50
2010,04,02,12,03,48.30
2010,04,02,12,04,48.30
2010,04,02,12,05,54.70
2010,04,02,12,06,33.80
2010,04,02,12,07,41.80
2010,04,02,12,08,27.40
2010,04,02,12,09,43.50
2010,04,02,12,10,48.30
2010,04,02,12,11,29.00
2010,04,02,12,12,41.80
2010,04,02,12,13,43.50
2010,04,02,12,14,43.50
2010,04,02,12,15,43.50
2010,04,02,12,16,35.40
2010,04,02,12,17,32.20
2010,04,02,12,18,35.40
2010,04,02,12,19,51.50
2010,04,02,12,20,53.10
2010,04,02,12,21,48.30
2010,04,02,12,22,53.10
2010,04,02,12,23,41.80
2010,04,02,12,24,40.20
2010,04,02,12,25,49.90
2010,04,02,12,26,43.50
2010,04,02,12,27,30.60
2010,04,02,12,28,41.80
2010,04,02,12,29,40.20
2010,04,02,12,30,37.00
2010,04,02,12,31,46.70
2010,04,02,12,32,27.40
2010,04,02,12,33,32.20
2010,04,02,12,34,33.80
2010,04,02,12,35,30.60
2010,04,02,12,36,25.70
2010,04,02,12,37,43.50
2010,04,02,12,38,30.60
2010,04,02,12,39,37.00
2010,04,02,12,40,33.80
2010,04,02,12,41,32.20
2010,04,02,12,42,45.10
2010,04,02,12,43,37.00
2010,04,02,12,44,30.60
2010,04,02,12,45,37.00
2010,04,02,12,46,32.20
2010,04,02,12,47,30.60
2010,04,02,12,48,38.60
2010,04,02,12,49,29.00
2010,04,02,12,50,33.80
2010,04,02,12,51,41.80
2010,04,02,12,52,35.40
2010,04,02,12,53,22.50
2010,04,02,12,54,24.20
2010,04,02,12,55,20.90
2010,04,02,12,56,29.00
2010,04,02,12,57,25.70
2010,04,02,12,58,29.00
2010,04,02,12,59,33.80
2010,04,02,13,00,17.70
2010,04,02,13,01,37.00
2010,04,02,13,02,30.60
2010,04,02,13,03,27.40
2010,04,02,13,04,25.70
2010,04,02,13,05,30.60
2010,04,02,13,06,17.70
2010,04,02,13,07,37.00
2010,04,02,13,08,22.50
2010,04,02,13,09,29.00
2010,04,02,13,10,35.40
2010,04,02,13,11,32.20
2010,04,02,13,12,27.40
2010,04,02,13,13,20.90
2010,04,02,13,14,37.00
2010,04,02,13,15,37.00
2010,04,02,13,16,30.60
2010,04,02,13,17,30.60
2010,04,02,13,18,35.40
2010,04,02,13,19,25.70
2010,04,02,13,20,20.90
2010,04,02,13,21,29.00
2010,04,02,13,22,29.00
2010,04,02,13,23,29.00
2010,04,02,13,24,27.40
2010,04,02,13,25,37.00
2010,04,02,13,26,33.80
2010,04,02,13,27,40.20
2010,04,02,13,28,24.20
2010,04,02,13,29,24.20
2010,04,02,13,30,20.90
2010,04,02,13,31,17.70
2010,04,02,13,32,20.90
2010,04,02,13,33,27.40
2010,04,02,13,34,33.80
2010,04,02,13,35,27.40
2010,04,02,13,36,16.10
2010,04,02,13,37,24.20
2010,04,02,13,38,29.00
2010,04,02,13,39,29.00
2010,04,02,13,40,24.20
2010,04,02,13,41,25.70
2010,04,02,13,42,19.30
2010,04,02,13,43,25.70
2010,04,02,13,44,22.50
2010,04,02,13,45,29.00
2010,04,02,13,46,33.80
2010,04,02,13,47,35.40
2010,04,02,13,48,27.40
2010,04,02,13,49,20.90
2010,04,02,13,50,29.00
2010,04,02,13,51,30.60
2010,04,02,13,52,24.20
2010,04,02,13,53,22.50
2010,04,02,13,54,29.00
2010,04,02,13,55,20.90
2010,04,02,13,56,25.70
2010,04,02,13,57,27.40
2010,04,02,13,58,17.70
2010,04,02,13,59,27.40
2010,04,02,14,00,19.30
2010,04,02,14,01,22.50
2010,04,02,14,02,30.60
2010,04,02,14,03,24.20
2010,04,02,14,04,17.70
2010,04,02,14,05,25.70
2010,04,02,14,06,29.00
2010,04,02,14,07,25.70
2010,04,02,14,08,24.20
2010,04,02,14,09,20.90
2010,04,02,14,10,20.90
2010,04,02,14,11,17.70
2010,04,02,14,12,22.50
2010,04,02,14,13,20.90
2010,04,02,14,14,24.20
2010,04,02,14,15,25.70
2010,04,02,14,16,22.50
2010,04,02,14,17,20.90
2010,04,02,14,18,29.00
2010,04,02,14,19,24.20
2010,04,02,14,20,22.50
2010,04,02,14,21,20.90
2010,04,02,14,22,19.30
2010,04,02,14,23,30.60
2010,04,02,14,24,16.10
2010,04,02,14,25,32.20
2010,04,02,14,26,19.30
2010,04,02,14,27,24.20
2010,04,02,14,28,14.50
2010,04,02,14,29,4.80
2010,04,02,14,30,19.30
2010,04,02,14,31,14.50
2010,04,02,14,32,19.30
2010,04,02,14,33,11.30
2010,04,02,14,34,30.60
2010,04,02,14,35,24.20
2010,04,02,14,36,16.10
2010,04,02,14,37,14.50
2010,04,02,14,38,16.10
2010,04,02,14,39,29.00
2010,04,02,14,40,17.70
2010,04,02,14,41,9.60
2010,04,02,14,42,14.50
2010,04,02,14,43,17.70
2010,04,02,14,44,16.10
2010,04,02,14,45,17.70
2010,04,02,14,46,14.50
2010,04,02,14,47,14.50
2010,04,02,14,48,14.50
2010,04,02,14,49,17.70
2010,04,02,14,50,12.90
2010,04,02,14,51,9.60
2010,04,02,14,52,17.70
2010,04,02,14,53,17.70
2010,04,02,14,54,6.40
2010,04,02,14,55,9.60
2010,04,02,14,56,11.30
2010,04,02,14,57,8.10
2010,04,02,14,58,4.80
2010,04,02,14,59,6.40
2010,04,02,15,00,9.60
2010,04,02,15,01,14.50
2010,04,02,15,02,14.50
2010,04,02,15,03,9.60
2010,04,02,15,04,14.50
2010,04,02,15,05,16.10
2010,04,02,15,06,17.70
2010,04,02,15,07,16.10
2010,04,02,15,08,16.10
2010,04,02,15,09,14.50
2010,04,02,15,10,22.50
2010,04,02,15,11,19.30
2010,04,02,15,12,17.70
2010,04,02,15,13,16.10
2010,04,02,15,14,14.50
2010,04,02,15,15,4.80
2010,04,02,15,16,8.10
2010,04,02,15,17,11.30
2010,04,02,15,18,11.30
2010,04,02,15,19,9.60
2010,04,02,15,20,8.10
2010,04,02,15,21,6.40
2010,04,02,15,22,6.40
2010,04,02,15,23,16.10
2010,04,02,15,24,14.50
2010,04,02,15,25,11.30
2010,04,02,15,26,6.40
2010,04,02,15,27,9.60
2010,04,02,15,28,8.10
2010,04,02,15,29,19.30
2010,04,02,15,30,11.30
2010,04,02,15,31,14.50
2010,04,02,15,32,14.50
2010,04,02,15,33,9.60
2010,04,02,15,34,14.50
2010,04,02,15,35,20.90
2010,04,02,15,36,17.70
2010,04,02,15,37,16.10
2010,04,02,15,38,16.10
2010,04,02,15,39,14.50
2010,04,02,15,40,8.10
2010,04,02,15,41,14.50
2010,04,02,15,42,17.70
2010,04,02,15,43,19.30
2010,04,02,15,44,14.50
2010,04,02,15,45,19.30
2010,04,02,15,46,12.90
2010,04,02,15,47,14.50
2010,04,02,15,48,11.30
2010,04,02,15,49,14.50
2010,04,02,15,50,9.60
2010,04,02,15,51,9.60
2010,04,02,15,52,16.10
2010,04,02,15,53,11.30
2010,04,02,15,54,24.20
2010,04,02,15,55,16.10
2010,04,02,15,56,11.30
2010,04,02,15,57,11.30
2010,04,02,15,58,14.50
2010,04,02,15,59,8.10
2010,04,02,16,00,8.10
2010,04,02,16,01,19.30
2010,04,02,16,02,16.10
2010,04,02,16,03,6.40
2010,04,02,16,04,17.70
2010,04,02,16,05,14.50
2010,04,02,16,06,19.30
2010,04,02,16,07,9.60
2010,04,02,16,08,22.50
2010,04,02,16,09,11.30
2010,04,02,16,10,9.60
2010,04,02,16,11,9.60
2010,04,02,16,12,14.50
2010,04,02,16,13,12.90
2010,04,02,16,14,20.90
2010,04,02,16,15,14.50
2010,04,02,16,16,9.60
2010,04,02,16,17,3.20
2010,04,02,16,18,11.30
2010,04,02,16,19,9.60
2010,04,02,16,20,19.30
2010,04,02,16,21,6.40
2010,04,02,16,22,8.10
2010,04,02,16,23,9.60
2010,04,02,16,24,14.50
2010,04,02,16,25,8.10
2010,04,02,16,26,17.70
2010,04,02,16,27,14.50
2010,04,02,16,28,14.50
2010,04,02,16,29,9.60
2010,04,02,16,30,9.60
2010,04,02,16,31,14.50
2010,04,02,16,32,14.50
2010,04,02,16,33,17.70
2010,04,02,16,34,17.70
2010,04,02,16,35,9.60
2010,04,02,16,36,8.10
2010,04,02,16,37,16.10
2010,04,02,16,38,9.60
2010,04,02,16,39,6.40
2010,04,02,16,40,16.10
2010,04,02,16,41,16.10
2010,04,02,16,42,11.30
2010,04,02,16,43,16.10
2010,04,02,16,44,16.10
2010,04,02,16,45,16.10
2010,04,02,16,46,22.50
2010,04,02,16,47,16.10
2010,04,02,16,48,16.10
2010,04,02,16,49,9.60
2010,04,02,16,50,6.40
2010,04,02,16,51,6.40
2010,04,02,16,52,4.80
2010,04,02,16,53,4.80
2010,04,02,16,54,9.60
2010,04,02,16,55,19.30
2010,04,02,16,56,11.30
2010,04,02,16,57,16.10
2010,04,02,16,58,3.20
2010,04,02,16,59,4.80
2010,04,02,17,00,4.80
2010,04,02,17,01,16.10
2010,04,02,17,02,11.30
2010,04,02,17,03,16.10
2010,04,02,17,04,3.20
2010,04,02,17,05,8.10
2010,04,02,17,06,3.20
2010,04,02,17,07,3.20
2010,04,02,17,08,6.40
2010,04,02,17,09,3.20
2010,04,02,17,10,3.20
2010,04,02,17,11,4.80
2010,04,02,17,12,3.20
2010,04,02,17,13,4.80
2010,04,02,17,14,6.40
2010,04,02,17,15,8.10
2010,04,02,17,16,0.00
2010,04,02,17,17,4.80
2010,04,02,17,18,4.80
2010,04,02,17,19,9.60
2010,04,02,17,20,3.20
2010,04,02,17,21,4.80
2010,04,02,17,22,3.20
2010,04,02,17,23,11.30
2010,04,02,17,24,4.80
2010,04,02,17,25,4.80
2010,04,02,17,26,4.80
2010,04,02,17,27,11.30
2010,04,02,17,28,9.60
2010,04,02,17,29,6.40
2010,04,02,17,30,16.10